Regional Weather Roundup
Issued by NWS

Home | Current Version | Previous Version | Graphics & Text | Print | Product List | Glossary On
Versions: 1 2 3 4 5 6 7 8 9 10 11 12 13 14 15 16 17 18 19 20 21 22 23 24 25 26 27 28 29 30 31 32 33 34 35 36 37 38 39 40 41 42 43 44 45 46 47 48 49 50
000
ASUS45 KABQ 270701
RWRNM
NEW MEXICO REGIONAL WEATHER ROUNDUP
NATIONAL WEATHER SERVICE ALBUQUERQUE NM
100 AM MDT TUE JUN 27 2017

NOTE: "FAIR" MEANS FEW OR NO CLOUDS BELOW 12,000 FEET AGL WITH NO
       SIGNIFICANT WEATHER OR OBSTRUCTIONS TO VISION.

      THIS PRODUCT IS RELEASED AS TWO VERSIONS.  ONE VERSION NEAR
      THE TOP OF THE HOUR CONTAINING PRELIMINARY DATA FROM ALBUQUERQUE
      AND OTHER STATIONS.  A FINAL VERSION WITH ADDITIONAL DATA IS
      ISSUED ABOUT 10 MINUTES AFTER THE HOUR.

NMZ501-503-504-510>518-270800-
NORTHWEST PLATEAU/NORTHCENTRAL MOUNTAINS

CITY           SKY/WX    TMP DP  RH WIND       PRES   REMARKS
FARMINGTON     FAIR      74  41  30 E14G22    30.07F
LOS ALAMOS     FAIR      61  42  49 S12       30.31F
SANTA FE       FAIR      58  49  72 S3        30.29R
TAOS           FAIR      66  37  34 E13       30.33S
ANGEL FIRE     FAIR      43  41  93 NW6       30.45F

$$
NMZ402-403-502-505>509-270800-
WESTCENTRAL MOUNTAINS/SOUTHWEST MOUNTAINS

CITY           SKY/WX    TMP DP  RH WIND       PRES   REMARKS
GALLUP         FAIR      72  41  32 S13       30.21F
GRANTS         FAIR      64  45  49 S9        30.28F
SILVER CITY    FAIR      65  57  76 CALM      30.23R

$$
NMZ407-409-411-412-270800-
SOUTHERN DESERTS

CITY           SKY/WX    TMP DP  RH WIND       PRES   REMARKS
DEMING         FAIR      76  49  38 NE6       30.14R
LAS CRUCES     FAIR      76  49  38 SE5       30.16S
HOLLOMAN AFB   FAIR      72  50  45 S6        30.15S
ALAMOGORDO     FAIR      68  52  56 SE8       30.15S
T OR C         FAIR      69  51  52 N5        30.18F

$$
NMZ519>523-270800-
CENTRAL VALLEYS/CENTRAL HIGHLANDS

CITY           SKY/WX    TMP DP  RH WIND       PRES   REMARKS
ALBUQUERQUE    MOCLDY    69  47  45 S6        30.23R
DOUBLE EAGLE   FAIR      65  46  48 SE5       30.27R
MORIARTY ARPT  FAIR      57  52  82 CALM      30.29F
CLINES CORNERS FAIR      54  46  74 NW7       30.33S
BELEN          NOT AVBL
SOCORRO        FAIR      65  49  55 SW5       30.18F

$$
NMZ524>526-539-540-270800-
SOUTHCENTRAL MOUNTAINS

CITY           SKY/WX    TMP DP  RH WIND       PRES   REMARKS
RUIDOSO        FAIR      52  50  93 CALM      30.33F

$$
NMZ527>531-270800-
NORTHEAST HIGHLANDS/NORTHEAST PLAINS

CITY           SKY/WX    TMP DP  RH WIND       PRES   REMARKS
LAS VEGAS      FAIR      54  47  77 NW6       30.34R
RATON          FAIR      59  45  59 NE6       30.28F
CLAYTON        FAIR      62  51  67 W12       30.18F

$$
NMZ532>537-270800-
EASTCENTRAL PLAINS

CITY           SKY/WX    TMP DP  RH WIND       PRES   REMARKS
SANTA ROSA     FAIR      63  49  60 CALM      30.19S
TUCUMCARI      FAIR      69  61  75 S8        30.14F
CANNON AFB     FAIR      66  66 100 SW3       30.20F
CLOVIS AIRPORT FAIR      64  61  90 W8        30.20F

$$
NMZ028-029-538-270800-
SOUTHEAST PLAINS

CITY           SKY/WX    TMP DP  RH WIND       PRES   REMARKS
ROSWELL        FAIR      68  59  73 S8        30.14R
ARTESIA        FAIR      66  66 100 SE9G15    30.13F
CARLSBAD       TSTM      66  63  90 W5        30.15F FOG
HOBBS          FAIR      68  68 100 E3        30.17F


$$



USA.gov is the U.S. government's official web portal to all federal, state and local government web resources and services.